Regional Weather Roundup
Issued by NWS

Home | Current Version | Previous Version | Text Only | Print | Product List | Glossary Off
Versions: 1 2 3 4 5 6 7 8 9 10 11 12 13 14 15 16 17 18 19 20 21 22 23 24 25 26 27 28 29 30 31 32 33 34 35 36 37 38 39 40 41 42 43 44 45 46 47 48 49 50

476
ASUS43 KDTX 060210
RWRMI
MICHIGAN HOURLY REGIONAL WEATHER ROUNDUP
NATIONAL WEATHER SERVICE DETROIT/PONTIAC MI
1000 PM EDT THU MAY 05 2016

NOTE: "FAIR" INDICATES FEW OR NO CLOUDS BELOW 12,000 FEET WITH NO
SIGNIFICANT WEATHER AND/OR OBSTRUCTION TO VISIBILITY.

MIZ047>049-052>055-059>063-066>070-074>076-081>083-060300-
SOUTHEAST LOWER MICHIGAN

CITY           SKY/WX    TMP DP  RH WIND       PRES   REMARKS
ADRIAN         CLEAR     56  38  50 N5        29.90R
ALMA           MOCLDY    53  46  77 CALM      29.92R
ANN ARBOR      CLEAR     52  37  56 CALM      29.90R
BAD AXE        CLEAR     46  38  72 CALM      29.92R
CARO           CLEAR     45  40  83 N3        29.91R
DETROIT CITY   CLEAR     56  32  40 N7        29.89R
DETROIT        PTCLDY    57  34  41 N6        29.90R
FLINT          CLEAR     60  35  39 N5        29.91R
GROSSE ILE     CLEAR     57  34  41 N7        29.87R
HILLSDALE      CLEAR     53  38  57 CALM      29.91R
HOWELL         CLEAR     57  38  50 CALM      29.91R

CITY           SKY/WX    TMP DP  RH WIND       PRES   REMARKS
JACKSON        PTCLDY    53  42  66 CALM      29.91R
LAMBERTVILLE   CLEAR     52  40  63 CALM      29.90R
LANSING        CLEAR     54  44  69 CALM      29.92R
LAPEER         FAIR      52  35  51 CALM      29.91R
MASON          CLEAR     53  46  76 S3        29.91R
MONROE         CLEAR     54  38  56 N3        29.88R
MT. CLEMENS    CLEAR     52  36  53 N9        29.88R
PONTIAC        PTCLDY    54  33  45 N5        29.90R
PORT HOPE        N/A     47  40  76 CALM      29.90R
PORT HURON     CLEAR     52  37  58 N5        29.89S
TRI CITIES     PTCLDY    52  43  71 N5        29.93R
MIDLAND        FAIR      49  41  74 CALM      29.92R
TROY           CLEAR     57  34  42 N6        29.91R
SAGINAW HB     CLEAR     50  43  76 N5        29.91R
$$
MIZ043>046-050>051-056>058-064>065-071>073-077>080-060300-
SOUTHWEST LOWER MICHIGAN

CITY           SKY/WX    TMP DP  RH WIND       PRES   REMARKS
BATTLE CREEK   MOCLDY    56  40  55 NW10      29.94R
BENTON HARBOR  CLEAR     42  37  82 CALM      29.97R
BIG RAPIDS     CLEAR     53  37  55 NW5       29.93R
COLDWATER      PTCLDY    56  41  58 NW6       29.93R
FREMONT        FAIR      47  34  61 NW5       29.95R
HOLLAND        CLEAR    N/A N/A N/A CALM      29.96R
GRAND RAPIDS   PTCLDY    57  41  55 NW7       29.93R
IONIA          CLOUDY    58  40  50 NW7       29.91R
KALAMAZOO      CLEAR     53  38  56 NW10      29.94R
LUDINGTON      CLEAR     42  36  78 CALM      29.95S
MARSHALL       MOCLDY    56  43  61 W6        29.92R
MOUNT PLEASANT PTCLDY    55  40  57 CALM      29.93R
MUSKEGON       MOCLDY    50  35  56 N6        29.95S
SOUTH HAVEN    CLEAR     45  38  77 CALM      29.97R
$$
MIZ016>042-060300-
NORTHERN LOWER MICHIGAN

CITY           SKY/WX    TMP DP  RH WIND       PRES   REMARKS
ALPENA         CLEAR     51  40  65 N7        29.92R
BEAVER ISLAND  CLEAR     43  33  68 CALM      29.93S
BELLAIRE       CLEAR     43  38  81 CALM      29.95R
CADILLAC       CLEAR     49  39  66 CALM      29.94R
CHARLEVOIX     CLEAR     43  36  76 CALM      29.97S
FRANKFORT      CLEAR     42  36  79 CALM      29.94S
GAYLORD        CLEAR     51  39  63 CALM      29.93R
GRAYLING       CLEAR     46  39  76 W6        29.95R
HARBOR SPRINGS CLEAR     42  33  69 CALM      29.94S
HOUGHTON LAKE  CLEAR     52  38  58 NW5       29.93R
MANISTEE       CLEAR     43  34  70 CALM      29.95S
OSCODA         CLEAR     46  38  71 W7        29.91R
PELLSTON       CLEAR     47  36  65 NW3       29.94R
ROGERS CITY    CLEAR     45  38  77 W5        29.94R
TRAVERSE CITY  PTCLDY    45  38  76 CALM      29.93S
$$
MIZ007>008-015-060300-
EASTERN UPPER MICHIGAN

CITY           SKY/WX    TMP DP  RH WIND       PRES   REMARKS
KINROSS          N/A     43  36  75 CALM      29.93S
MACKINAC ISLAN CLEAR     44  37  76 W6        29.93F
NEWBERRY       CLOUDY    48  37  64 CALM      29.93R
S. S. MARIE    CLEAR     45  33  63 W5        29.91F
MUNISING         N/A     46  38  73 CALM      29.91R
$$
MIZ004>006-011>014-085-060300-
CENTRAL UPPER MICHIGAN

CITY           SKY/WX    TMP DP  RH WIND       PRES   REMARKS
MANISTIQUE     CLEAR     44  37  78 CALM      29.93R
ESCANABA       CLEAR     45  37  76 CALM      29.92S
MENOMINEE      CLEAR     50  39  66 E6        29.92S
SAWYER-GWINN   CLEAR     55  39  54 S7        29.89R
$$
MIZ001>003-009>011-084-060300-
WESTERN UPPER MICHIGAN

CITY           SKY/WX    TMP DP  RH WIND       PRES   REMARKS
IRON MOUNTAIN  CLOUDY    57  39  51 SE6       29.89R
HOUGHTON       PTCLDY    48  29  47 E6        29.86F
COPPER HARBOR    N/A     46  34  62 SW13G25   29.83F
IRONWOOD         N/A     64  39  39 S8        29.83S
$$

ABBREVIATIONS USED IN REMARKS
   TC - TEMPERATURE IN CELSIUS
  WCI - WIND CHILL INDEX
   HX - HEAT INDEX
  VSB - VISIBILITY





USA.gov is the U.S. government's official web portal to all federal, state and local government web resources and services.